Skip Page Navigation
NASA JPL Caltech
NASA Logo - Jet Propulsion Laboratory + View the NASA Portal
+ Center for Near-Earth Object Studies
JPL Home Earth Solar System Stars & Galaxies Technology
JPL Solar System Dynamics
BODIES ORBITS EPHEMERIDES TOOLS PHYSICAL DATA DISCOVERY FAQ SITE MAP
IMPORTANT: The SSD Announcement email list is now available. Major changes are coming in the near future, including possible hostname and/or URL changes. To be notified of such changes, subscribe to this email list.

Please visit this page for more details.


JPL Small-Body Database Browser
Search: [ help ]  
534625 (2014 UQ224)
Classification: TransNeptunian Object          SPK-ID: 2534625
Ephemeris | Orbit Diagram | Orbital Elements | Physical Parameters | Discovery Circumstances ]

[ show orbit diagram ]
Orbital Elements at Epoch 2458600.5 (2019-Apr-27.0) TDB
Reference: JPL 5 (heliocentric ecliptic J2000)
 Element Value Uncertainty (1-sigma)   Units 
e .05535666170566143 2.2768e-05  
a 44.2218803410814 0.0013036 au
q 41.77390467105192 0.0021894 au
i 1.946001954098772 0.0001 deg
node 16.66475588230124 0.0037913 deg
peri 223.9015212460739 0.065178 deg
M 194.3867248715508 0.072549 deg
tp 2508014.143712466961
(2154-Aug-10.64371247)
21.275 TDB
period 107412.3540077997
294.08
4.7496
0.013
d
yr
n .003351569782874872 1.482e-07 deg/d
Q 46.66985601111088 0.0013758 au
  Orbit Determination Parameters
   # obs. used (total)      131  
   data-arc span      2612 days (7.15 yr)  
   first obs. used      2010-11-16  
   last obs. used      2018-01-10  
   planetary ephem.      DE431  
   SB-pert. ephem.      SB431-N16  
   condition code      3  
   norm. resid. RMS      .53797  
   source      ORB  
   producer      Otto Matic  
   solution date      2019-May-30 11:26:10  

Additional Information
 Earth MOID = 40.7617 au 
 Jupiter MOID = 36.3961 au 
 T_jup = 5.936 
[ show covariance matrix ]

Ephemeris | Orbit Diagram | Orbital Elements | Physical Parameters | Discovery Circumstances ]

Physical Parameter Table
Parameter Symbol Value Units Sigma Reference Notes
absolute magnitude H 5.5   n/a E2018W58  

534625 (2014 UQ224)          Discovered 2010-Nov-16 by Pan-STARRS 1 at Haleakala
Reference: Last Updated: 2019-05-29
Ephemeris | Orbit Diagram | Orbital Elements | Physical Parameters | Discovery Circumstances ]
ABOUT SSD CREDITS/AWARDS PRIVACY/COPYRIGHT GLOSSARY LINKS
FirstGov
(server date/time)  
NASA Home Page
Site Manager:   Ryan S. Park
Webmaster  Alan B. Chamberlin